FW8563 Weather Reports


Display with metric or nautical units.
time (UTC)temp
F
wind
direction
speed
MPH
gust
MPH
rain 1hr
in
rain 24hr
in
rain mn
in
humidity
%
barometer
mb
20260504213936 54 150 0.0 3.0 0.00 0.01 0.01 91 1019.8
20260504213438 54 137 0.0 3.0 0.00 0.01 0.01 91 1019.9
20260504212937 54 193 0.0 2.0 0.00 0.01 0.01 91 1020.0
20260504212437 54 163 0.0 3.0 0.00 0.01 0.01 91 1019.9
20260504211935 54 247 0.0 3.0 0.00 0.01 0.01 90 1020.0
20260504211435 54 211 0.0 3.0 0.00 0.01 0.01 90 1020.0
20260504210935 54 170 0.0 2.0 0.00 0.01 0.01 89 1020.1
20260504210436 54 211 0.0 2.0 0.00 0.01 0.01 89 1020.1
20260504205932 54 144 0.0 2.0 0.00 0.01 0.01 89 1020.1
20260504205429 54 204 0.0 3.0 0.00 0.01 0.01 88 1020.2
20260504204421 54 221 0.0 3.0 0.00 0.01 0.01 88 1020.1
20260504203919 54 134 0.0 3.0 0.00 0.01 0.01 88 1020.0
20260504203416 54 212 0.0 2.0 0.00 0.01 0.01 88 1020.1
20260504202417 54 193 0.0 3.0 0.00 0.01 0.01 87 1020.0
20260504201919 55 211 1.0 5.0 0.00 0.01 0.01 87 1020.0
20260504201414 55 227 1.0 5.0 0.00 0.01 0.01 87 1020.1
20260504200914 55 214 2.0 6.0 0.00 0.01 0.01 87 1020.1
20260504200414 55 212 1.0 6.0 0.00 0.01 0.01 87 1020.0
20260504195912 55 210 0.0 3.0 0.00 0.01 0.01 86 1020.0
20260504195413 55 216 0.0 0.0 0.00 0.01 0.01 86 1019.9
20260504194918 55 207 0.0 3.0 0.00 0.01 0.01 86 1019.9
20260504194414 55 216 0.0 3.0 0.00 0.01 0.01 85 1019.9
20260504193913 55 212 0.0 2.0 0.00 0.01 0.01 85 1019.8
20260504193410 55 233 0.0 4.0 0.00 0.01 0.01 85 1019.9
20260504192910 55 195 0.0 4.0 0.00 0.01 0.01 84 1019.8
20260504192412 55 221 0.0 3.0 0.00 0.01 0.01 84 1019.8
20260504191909 55 200 0.0 4.0 0.00 0.01 0.01 83 1019.8
20260504191415 55 209 1.0 4.0 0.00 0.01 0.01 82 1019.8
20260504190912 56 221 1.0 4.0 0.00 0.01 0.01 82 1019.7
20260504190407 56 187 1.0 4.0 0.00 0.01 0.01 81 1019.8
20260504185907 56 191 2.0 6.0 0.00 0.01 0.01 81 1019.7
20260504185429 56 194 2.0 6.0 0.00 0.01 0.01 80 1019.7
20260504184907 56 221 1.0 6.0 0.00 0.01 0.01 79 1019.6
20260504184406 56 229 1.0 4.0 0.00 0.01 0.01 78 1019.7
20260504183907 56 199 1.0 4.0 0.00 0.01 0.01 78 1019.7
20260504183405 57 224 1.0 5.0 0.00 0.01 0.01 77 1019.7
20260504182910 57 206 3.0 8.0 0.00 0.01 0.01 77 1019.7
20260504182400 57 220 3.0 8.0 0.00 0.01 0.01 76 1019.8
20260504180856 58 188 1.0 7.0 0.00 0.01 0.01 74 1019.8
20260504180355 58 204 1.0 6.0 0.00 0.01 0.01 74 1019.7
20260504175855 58 205 2.0 9.0 0.00 0.01 0.01 73 1019.7
20260504175355 58 218 2.0 9.0 0.00 0.01 0.01 72 1019.6
20260504174851 58 236 2.0 8.0 0.00 0.01 0.01 71 1019.7
20260504174351 58 227 3.0 7.0 0.00 0.01 0.01 70 1019.7
20260504173853 58 227 3.0 8.0 0.00 0.01 0.01 68 1019.6
20260504173349 58 159 3.0 8.0 0.00 0.01 0.01 68 1019.6
20260504172852 59 221 3.0 9.0 0.00 0.01 0.01 69 1019.7
20260504172351 59 227 3.0 9.0 0.00 0.01 0.01 67 1019.6
20260504171347 59 182 3.0 8.0 0.00 0.01 0.01 63 1019.6
20260504170841 60 285 4.0 11.0 0.00 0.01 0.01 61 1019.6
20260504170336 60 205 5.0 11.0 0.00 0.01 0.01 61 1019.5
20260504160332 62 191 3.0 12.0 0.00 0.01 0.01 60 1019.7
20260504150839 61 245 2.0 6.0 0.00 0.01 0.01 63 1020.0
20260504150326 61 191 2.0 5.0 0.00 0.01 0.01 63 1020.0
20260504141324 62 208 2.0 12.0 0.00 0.01 0.01 60 1020.0
20260504140827 62 200 3.0 12.0 0.00 0.01 0.01 60 1020.0
20260504140327 62 210 3.0 8.0 0.00 0.01 0.01 59 1020.1
20260504120317 64 229 5.0 11.0 0.00 0.01 0.01 66 1021.0
20260504110258 63 236 4.0 10.0 0.00 0.01 0.01 57 1021.4
20260504100248 60 164 2.0 7.0 0.00 0.01 0.01 61 1021.8
20260504081734 59 134 1.0 6.0 0.00 0.01 0.01 64 1021.9
20260504081234 59 159 1.0 5.0 0.00 0.01 0.01 66 1021.9
20260504080732 59 143 1.0 4.0 0.00 0.01 0.01 68 1021.8
20260504080231 58 111 1.0 4.0 0.00 0.01 0.01 69 1021.8
20260504070217 57 158 0.0 1.0 0.00 0.01 0.01 77 1021.3
20260504050207 53 37 0.0 0.0 0.00 0.01 0.01 89 1020.7
20260504045707 53 37 0.0 0.0 0.00 0.01 0.01 90 1020.7
20260504045207 52 37 0.0 0.0 0.00 0.01 0.01 90 1020.7
20260504044705 52 37 0.0 0.0 0.00 0.01 0.01 91 1020.6
20260504044207 52 37 0.0 0.0 0.00 0.01 0.01 91 1020.5
20260504043708 52 37 0.0 0.0 0.00 0.01 0.01 92 1020.5
20260504043205 51 37 0.0 0.0 0.00 0.01 0.01 93 1020.5
20260504041205 51 37 0.0 0.0 0.00 0.01 0.01 94 1020.3
20260504040159 50 37 0.0 0.0 0.00 0.01 0.01 93 1020.3
20260504035701 50 37 0.0 0.0 0.00 0.01 0.01 92 1020.2
20260504035202 51 37 0.0 0.0 0.00 0.01 0.01 92 1020.3
20260504034701 51 37 0.0 0.0 0.00 0.01 0.01 91 1020.3
20260504034159 51 37 0.0 0.0 0.00 0.01 0.01 92 1020.2
20260504033653 51 37 0.0 0.0 0.00 0.01 0.01 92 1020.1
20260504033147 51 37 0.0 0.0 0.00 0.01 0.01 94 1020.2
20260504032646 51 321 0.0 0.0 0.00 0.01 0.01 95 1020.3
20260504032146 50 321 0.0 0.0 0.00 0.01 0.01 95 1020.3
20260504031645 50 321 0.0 0.0 0.01 0.01 0.01 95 1020.3
20260504031141 49 321 0.0 0.0 0.01 0.01 0.01 95 1020.3
20260504030639 49 321 0.0 1.0 0.01 0.01 0.01 94 1020.5
20260504025637 51 310 0.0 0.0 0.01 0.01 0.01 92 1020.5
20260504024633 51 99 0.0 0.0 0.01 0.01 0.01 92 1020.5
20260504024131 51 99 0.0 0.0 0.01 0.01 0.01 92 1020.3
20260504023630 51 100 0.0 0.0 0.01 0.01 0.01 93 1020.3
20260504023130 51 99 0.0 0.0 0.01 0.01 0.01 94 1020.5
20260504022629 51 83 0.0 0.0 0.01 0.01 0.01 95 1020.6
20260504022127 51 83 0.0 0.0 0.01 0.01 0.01 96 1020.6
20260504021625 51 39 0.0 0.0 0.00 0.00 0.00 96 1020.5
20260504021126 51 39 0.0 0.0 0.00 0.00 0.00 96 1020.6
20260504020622 51 39 0.0 0.0 0.00 0.00 0.00 96 1020.6
20260504020119 51 39 0.0 0.0 0.00 0.00 0.00 96 1020.7
20260504015617 50 39 0.0 0.0 0.00 0.00 0.00 96 1020.6
20260504015116 49 39 0.0 0.0 0.00 0.00 0.00 96 1020.6
20260504014615 49 39 0.0 0.0 0.00 0.00 0.00 95 1020.6
20260504013613 49 39 0.0 1.0 0.00 0.00 0.00 96 1020.5
20260504013113 48 39 0.0 1.0 0.00 0.00 0.00 96 1020.5
20260504012612 48 44 0.0 0.0 0.00 0.00 0.00 96 1020.5
20260504012112 49 45 0.0 0.0 0.00 0.00 0.00 96 1020.6
20260504011607 49 45 0.0 1.0 0.00 0.00 0.00 96 1020.6
20260504011110 49 45 0.0 1.0 0.00 0.00 0.00 96 1020.6
20260504010106 50 86 0.0 1.0 0.00 0.00 0.00 96 1020.6
20260504005605 50 80 0.0 1.0 0.00 0.00 0.00 96 1020.7
20260504005105 51 80 0.0 1.0 0.00 0.00 0.00 96 1020.7
20260504004607 51 101 0.0 1.0 0.00 0.00 0.00 96 1020.7
20260504004102 51 108 0.0 1.0 0.00 0.00 0.00 96 1020.8
20260504003055 51 108 0.0 1.0 0.00 0.00 0.00 96 1020.8
20260504002553 51 86 0.0 0.0 0.00 0.00 0.00 96 1020.8
20260504002053 51 128 0.0 0.0 0.00 0.00 0.00 96 1020.8
20260504001553 51 97 0.0 0.0 0.00 0.00 0.00 95 1020.8
20260504000551 51 102 0.0 1.0 0.00 0.00 0.00 95 1020.8
20260504000100 51 113 0.0 1.0 0.00 0.00 0.00 96 1020.9
20260503235550 51 83 0.0 1.0 0.00 0.00 0.00 96 1021.0
20260503235047 51 71 0.0 1.0 0.00 0.00 0.00 96 1021.0
20260503234044 52 86 1.0 5.0 0.00 0.00 0.00 96 1021.0
20260503233540 52 100 1.0 5.0 0.00 0.00 0.00 96 1021.1
20260503233044 52 113 0.0 2.0 0.00 0.00 0.00 96 1021.1
20260503231530 52 122 0.0 2.0 0.00 0.00 0.00 96 1021.1
20260503230525 53 119 1.0 4.0 0.00 0.00 0.00 96 1021.1
20260503230023 53 119 0.0 4.0 0.00 0.00 0.00 96 1021.1
20260503225023 53 126 0.0 2.0 0.00 0.00 0.00 96 1021.2
20260503224523 53 130 0.0 2.0 0.00 0.00 0.00 96 1021.3
20260503223520 53 116 1.0 3.0 0.00 0.00 0.00 96 1021.4
20260503223018 53 153 1.0 3.0 0.00 0.00 0.00 95 1021.3
20260503222520 53 121 1.0 3.0 0.00 0.00 0.00 95 1021.2
20260503222017 53 149 0.0 2.0 0.00 0.00 0.00 95 1021.3
20260503221518 53 148 0.0 2.0 0.00 0.00 0.00 95 1021.2
20260503221017 53 120 0.0 2.0 0.00 0.00 0.00 95 1021.2
20260503220018 53 146 1.0 3.0 0.00 0.00 0.00 95 1021.1
20260503215015 53 215 1.0 4.0 0.00 0.00 0.00 95 1021.2
20260503214515 53 103 1.0 4.0 0.00 0.00 0.00 95 1021.1
20260503214015 53 226 1.0 4.0 0.00 0.00 0.00 95 1021.1